Simultaneous Nadir Overpasses (SNOs) Predictions

Prediction of SNOs between AQUA and NOAA-19 Satellite Orbit:

Table of predicted SNOs for the next 14.0 days since TLE Epoch: 9/4/2020
Index Date (AQUA) Time (AQUA) Lat,Lon (AQUA) SZA (AQUA ) Date (NOAA-19) Time (NOAA-19) Lat,Lon (NOAA-19) SZA (NOAA-19 ) Distance(km) Time Diff (sec)
1 09/06/2020 13:04:43 -79.56, 136.62 105.49 09/06/2020 13:04:08 -79.53, 136.53 105.49 3.85 35
2 09/06/2020 13:54:10 79.56, -55.75 74.53 09/06/2020 13:55:11 79.58, -55.72 74.53 2.40 61
3 09/08/2020 18:38:27 79.55,-126.77 75.33 09/08/2020 18:37:28 79.53,-126.68 75.33 2.96 59
4 09/08/2020 19:27:53 -79.55, 40.92 104.67 09/08/2020 19:28:23 -79.55, 40.74 104.67 3.71 30
5 09/11/2020 01:01:37 79.55, 137.48 76.16 09/11/2020 01:01:43 79.55, 137.56 76.16 1.73 6
6 09/13/2020 06:35:19 -79.53,-125.83 103.04 09/13/2020 06:34:53 -79.54,-125.78 103.02 1.52 26
7 09/13/2020 07:24:46 79.54, 41.71 77.00 09/13/2020 07:25:57 79.57, 41.78 77.00 3.50 71
8 09/15/2020 12:09:02 79.51, -29.10 77.77 09/15/2020 12:08:14 79.52, -29.25 77.81 3.33 48
9 09/15/2020 12:58:30 -79.56, 138.16 102.14 09/15/2020 12:59:09 -79.53, 138.13 102.18 3.49 39
